User: anonymous   Login
Location: Beuerbach
(48.1459°N, 10.9174°E)
Time: 16:22:35
(UTC+00:00)
Language:

Cosmos 1346 Rocket - Orbit

View from above orbital plane
View from above orbital plane
View from above satellite
View from above satellite

Ground track
Ground track

The orbit data is extracted from the following two-line orbital elements,

1 13121U 82027B   24196.50540791  .00006218  00000-0  30899-3 0  9999
2 13121  81.1925  25.0835 0010906 149.4649 210.7217 15.17460222307013
Epoch (UTC): 14 July 2024 12:07:47
Eccentricity: 0.0010906
inclination: 81.1925°
perigee height: 506 km
apogee height: 521 km
right ascension of ascending node: 25.0835°
argument of perigee: 149.4649°
revolutions per day: 15.17460222
mean anomaly at epoch: 210.7217°
orbit number at epoch: 30701

The dashed part of the orbit path shows where the satellite is in the earth's shadow,  

DLR